EW6131 Weather Reports


time (UTC)temp
C
wind
direction
speed
KPH
gust
KPH
rain 1hr
cm
rain 24hr
cm
rain mn
cm
humidity
%
barometer
mb
20260504231528 12 235 3.2 12.9 0.00 0.00 0.00 84 1010.8
20260504230028 12 227 3.2 12.9 0.00 0.00 0.00 83 1010.8
20260504224529 12 0 3.2 16.1 0.00 0.00 0.00 82 1010.8
20260504223029 13 218 4.8 14.5 0.00 0.00 0.00 81 1010.8
20260504221530 13 163 6.4 20.9 0.00 0.00 0.00 79 1011.0
20260504220030 13 202 9.7 20.9 0.00 0.00 0.00 78 1010.8
20260504214530 13 230 6.4 19.3 0.00 0.00 0.00 77 1010.8
20260504213027 13 153 6.4 14.5 0.00 0.00 0.00 77 1010.8
20260504211530 13 175 6.4 19.3 0.00 0.00 0.00 75 1010.7
20260504210034 14 196 4.8 16.1 0.00 0.00 0.00 74 1010.8
20260504204530 14 200 4.8 20.9 0.00 0.00 0.00 74 1010.9
20260504203049 14 0 8.0 19.3 0.00 0.00 0.00 73 1010.7
20260504201528 14 205 6.4 19.3 0.00 0.00 0.00 73 1010.9
20260504200028 14 246 9.7 22.5 0.00 0.00 0.00 73 1011.1
20260504194533 14 260 8.0 22.5 0.00 0.00 0.00 73 1011.2
20260504193026 15 236 9.7 25.7 0.00 0.00 0.00 71 1011.1
20260504191530 15 242 9.7 19.3 0.00 0.00 0.00 68 1011.2
20260504190030 15 223 9.7 27.4 0.00 0.00 0.00 68 1011.2
20260504184533 16 207 6.4 20.9 0.00 0.00 0.00 67 1011.4
20260504183032 15 250 11.3 24.1 0.00 0.00 0.00 68 1011.7
20260504181528 15 237 8.0 22.5 0.00 0.00 0.00 70 1011.8
20260504180029 15 242 6.4 22.5 0.00 0.00 0.00 70 1011.8
20260504174528 15 195 6.4 17.7 0.00 0.00 0.00 71 1012.0
20260504173027 15 215 8.0 17.7 0.00 0.00 0.00 71 1012.1
20260504171527 15 272 9.7 19.3 0.00 0.00 0.00 73 1012.4
20260504081533 11 230 6.4 16.1 0.00 0.00 0.00 71 1013.0
20260504044532 11 246 0.0 4.8 0.00 0.00 0.00 74 1012.4
20260504043030 11 0 0.0 8.0 0.00 0.00 0.00 72 1012.4
20260504041529 11 249 1.6 11.3 0.00 0.00 0.00 72 1012.3
20260504040031 11 0 1.6 8.0 0.00 0.00 0.00 73 1012.3
20260504034529 11 251 1.6 6.4 0.00 0.00 0.00 74 1012.2
20260504033034 11 277 0.0 4.8 0.00 0.00 0.00 77 1012.0
20260504031531 10 278 0.0 4.8 0.00 0.00 0.00 79 1011.9
20260504030030 8 0 0.0 3.2 0.00 0.00 0.00 73 1011.9
20260504024528 8 0 0.0 0.0 0.00 0.00 0.00 64 1012.0
20260504023030 9 0 0.0 0.0 0.00 0.00 0.00 57 1011.9
20260504021530 10 0 0.0 0.0 0.00 0.00 0.00 53 1011.8
20260504020030 10 0 0.0 0.0 0.00 0.00 0.00 52 1011.9
20260504014541 10 0 0.0 0.0 0.00 0.00 0.00 49 1011.7
20260504013034 11 0 0.0 0.0 0.00 0.00 0.00 46 1011.6
20260504011528 11 0 0.0 0.0 0.00 0.00 0.00 44 1011.4
20260504010030 11 0 0.0 0.0 0.00 0.00 0.00 43 1011.3
20260504004528 12 0 0.0 0.0 0.00 0.00 0.00 40 1011.0
20260504003027 12 0 0.0 0.0 0.00 0.00 0.00 39 1010.9
20260504001527 12 0 0.0 0.0 0.00 0.00 0.00 37 1010.6
20260504000039 13 0 0.0 6.4 0.00 0.00 0.00 35 1010.3
20260503234530 13 0 0.0 4.8 0.00 0.00 0.00 34 1010.1
20260503233029 13 0 0.0 12.9 0.00 0.00 0.00 33 1009.9